Regional Weather Roundup
Issued by NWS

Home | Current Version | Previous Version | Text Only | Print | Product List | Glossary On
Versions: 1 2 3 4 5 6 7 8 9 10 11 12 13 14 15 16 17 18 19 20 21 22 23 24 25 26 27 28 29 30 31 32 33 34 35 36 37 38 39 40 41 42 43 44 45 46 47 48 49 50
227
ASUS43 KLSX 290410
RWRMO

WEATHER SUMMARY FOR MISSOURI
NATIONAL WEATHER SERVICE SPRINGFIELD MO
1100 PM CDT TUE MAR 28 2017

NOTE: "FAIR" INDICATES FEW OR NO CLOUDS BELOW 12,000 FEET WITH NO
       SIGNIFICANT WEATHER AND/OR OBSTRUCTIONS TO VISIBILITY.
       CURRENT SKY AND/OR WEATHER CONDITIONS ARE NOT AVAILABLE FOR
       CHILLICOTHE AND FARMINGTON.

MOZ001>031-035>038-043-044-053-054-290500-
...NORTHERN AND WESTERN MISSOURI...

CITY           SKY/WX    TMP DP  RH WIND       PRES   REMARKS
KANSAS CTY INT CLOUDY    53  49  86 E14       30.02S
KANSAS C DTWN  CLOUDY    54  49  83 E15       30.01F
LEE`S SUMMIT   CLOUDY    53  50  89 E14       30.02S
ST JOSEPH      CLOUDY    53  49  86 E9        30.05R
CHILLICOTHE      N/A     52  47  83 E6        30.08R
KIRKSVILLE     CLOUDY    50  47  89 E13       30.09F

$$
MOZ066>068-077>081-088>096-101>105-290500-
...SOUTHWEST MISSOURI...

CITY           SKY/WX    TMP DP  RH WIND       PRES   REMARKS
SPRINGFIELD    PTCLDY    58  50  75 E14       29.94F
JOPLIN         MOCLDY    60  52  74 E10       29.86S

$$
MOZ032>034-039>042-045>050-055>058-069>072-290500-
...CENTRAL MISSOURI...

CITY           SKY/WX    TMP DP  RH WIND       PRES   REMARKS
COLUMBIA       CLOUDY    54  50  86 E13       30.06R
JEFFERSON CITY CLOUDY    57  49  74 E8        30.06R
ROLLA          CLOUDY    53  48  83 E14       30.04S
SEDALIA        CLOUDY    55  50  83 E13       30.04R
WHITEMAN AFB   CLOUDY    55  54  99 E8        30.01S
WARRENSBURG    CLOUDY    54  48  82 NE10      30.02S
OSAGE BEACH    CLOUDY    53  49  86 E9        30.04R

$$
MOZ051-052-059>065-290500-
...EAST CENTRAL MISSOURI...

CITY           SKY/WX    TMP DP  RH WIND       PRES   REMARKS
ST LOUIS INTL  CLOUDY    55  46  71 NE13      30.10F
SPIRIT OF STL  CLOUDY    55  49  80 NE10      30.08F
ST CHARLES     CLOUDY    54  49  83 NE8       30.10F

$$
MOZ072>076-082>087-097>100-106>115-290500-
...SOUTH CENTRAL AND SOUTHEAST MISSOURI...

CITY           SKY/WX    TMP DP  RH WIND       PRES   REMARKS
CAPE GIRARDEAU CLOUDY    57  50  77 NE7       30.07S
FARMINGTON     CLOUDY    53  48  83 SE6       30.09S
POPLAR BLUFF   CLEAR     56  51  84 NE8       30.05S
WEST PLAINS    CLOUDY    56  50  80 E8        30.02S

$$




USA.gov is the U.S. government's official web portal to all federal, state and local government web resources and services.